Location: 22
(39.7117°N, 89.5929°W)
Time: 07:49:42
(UTC-05:00)

A-11 Canister half - Pass Details

Date: 06 February 2023
Orbit: 1526 x 1682 km, 47.3° (Epoch: 01 April)

Event Time Altitude Azimuth Distance (km) Brightness Sun altitude
Exits shadow 03:46:17 42° 164° (SSE) 2,059 9.5 -37.8°
Maximum altitude 03:48:03 46° 136° (SE) 1,955 9.6 -37.5°
Drops below altitude 10° 03:56:45 10° 67° (ENE) 3,705 11.7 -35.8°
Sets 03:59:57 0° 62° (ENE) 4,700 12.5 -35.2°
